📊 Raw Sensor Data
Showing records 35801 to 35825 of 84,884 total
| ID | Distance (ft) | Battery V | Battery A | Int Temp (°F) | Int Humid (%) | Ext Temp (°F) | Solar V | RSSI | SNR | Time Stamp |
|---|---|---|---|---|---|---|---|---|---|---|
| 49096 | 15.4 | 4.09 | 0 | 98 | 45 | 89 | 5.10 | -70 | 7 | 08/13/2025 04:15 PM |
| 49095 | 15.4 | 3.99 | 5 | 98 | 44 | 89 | 5.10 | -70 | 7 | 08/13/2025 04:00 PM |
| 49094 | 15.4 | 4.09 | 5 | 98 | 44 | 88 | 5.10 | -70 | 8 | 08/13/2025 03:45 PM |
| 49093 | 15.4 | 3.90 | 0 | 97 | 44 | 87 | 5.10 | -71 | 7 | 08/13/2025 03:30 PM |
| 49092 | 15.4 | 3.90 | 0 | 98 | 42 | 88 | 5.10 | -71 | 8 | 08/13/2025 03:15 PM |
| 49091 | 15.4 | 3.90 | 0 | 97 | 42 | 88 | 5.10 | -69 | 8 | 08/13/2025 03:00 PM |
| 49090 | 15.3 | 3.90 | 5 | 95 | 42 | 86 | 5.10 | -70 | 7 | 08/13/2025 02:45 PM |
| 49089 | 15.3 | 4.11 | 0 | 94 | 42 | 85 | 5.10 | -69 | 7 | 08/13/2025 02:30 PM |
| 49088 | 15.3 | 3.90 | 0 | 93 | 42 | 84 | 5.10 | -70 | 8 | 08/13/2025 02:15 PM |
| 49087 | 15.3 | 3.91 | 5 | 92 | 42 | 84 | 5.10 | -71 | 8 | 08/13/2025 02:00 PM |
| 49086 | 15.3 | 3.90 | 5 | 92 | 41 | 82 | 5.10 | -70 | 7 | 08/13/2025 01:45 PM |
| 49085 | 15.3 | 3.90 | 0 | 90 | 42 | 83 | 5.10 | -71 | 7 | 08/13/2025 01:30 PM |
| 49084 | 15.3 | 3.90 | 0 | 88 | 42 | 79 | 5.10 | -69 | 8 | 08/13/2025 01:15 PM |
| 49083 | 15.3 | 3.90 | 5 | 87 | 42 | 81 | 5.10 | -69 | 8 | 08/13/2025 01:00 PM |
| 49082 | 15.3 | 3.90 | 0 | 86 | 42 | 79 | 5.10 | -70 | 8 | 08/13/2025 12:45 PM |
| 49081 | 15.3 | 3.90 | 0 | 85 | 42 | 80 | 5.10 | -71 | 8 | 08/13/2025 12:30 PM |
| 49080 | 15.3 | 3.93 | 5 | 84 | 42 | 81 | 5.10 | -72 | 7 | 08/13/2025 12:15 PM |
| 49079 | 15.3 | 3.90 | 0 | 82 | 42 | 82 | 5.10 | -70 | 8 | 08/13/2025 12:00 PM |
| 49078 | 15.3 | 3.90 | 0 | 80 | 42 | 76 | 5.10 | -70 | 8 | 08/13/2025 11:45 AM |
| 49077 | 15.3 | 3.90 | 0 | 78 | 42 | 78 | 5.10 | -69 | 7 | 08/13/2025 11:30 AM |
| 49076 | 15.3 | 3.90 | 0 | 78 | 42 | 73 | 5.10 | -71 | 7 | 08/13/2025 11:15 AM |
| 49075 | 15.3 | 4.00 | 0 | 77 | 42 | 78 | 5.10 | -70 | 7 | 08/13/2025 11:00 AM |
| 49074 | 15.3 | 3.90 | 0 | 76 | 42 | 75 | 5.10 | -69 | 8 | 08/13/2025 10:45 AM |
| 49073 | 15.3 | 3.90 | 0 | 74 | 42 | 75 | 5.10 | -72 | 8 | 08/13/2025 10:30 AM |
| 49072 | 15.3 | 3.90 | 0 | 73 | 42 | 74 | 5.10 | -71 | 8 | 08/13/2025 10:15 AM |